#timestamp,LO_Frequency,Hit,StdDev 
1586422815.6,286046999.1,N
1586422835.5,286046997.7,N
1586422855.3,286046993.7,Y
1586422875.2,286046995.3,P
1586422895.9,286046994.0,P
1586422915.7,286046996.1,N
1586422935.6,286046996.3,N
1586422955.4,286046994.1,Y
1586422975.2,286046999.0,P
1586422995.1,286046998.6,N
1586422996.0,286046998.6,N
1586423015.8,286046998.4,N
1586423035.7,286046998.9,N
1586423055.5,286046999.4,N
1586423075.3,286046998.7,N
1586423095.2,286046998.3,N
1586423115.0,286046999.4,N
1586423115.9,286046999.4,N
1586423135.8,286046998.7,N
1586423155.6,286046998.7,N
1586423175.4,286046999.2,N
1586423195.3,286046996.8,Y
1586423215.1,286046996.8,P
1586423235.9,286046996.6,P
1586423255.7,286046997.2,P
1586423275.5,286046997.0,Y
1586423295.4,286047000.5,P
1586423315.2,286047000.3,N
1586423335.0,286047000.8,N
1586423336.0,286047000.8,N
1586423355.8,286047000.8,N
1586423375.6,286047001.2,N
1586423395.5,286047001.1,N
1586423415.3,286047002.5,N
1586423435.1,286046999.8,N
1586423455.9,286047000.5,N
1586423475.7,286047000.3,N
1586423495.6,286047000.7,N
1586423515.4,286046998.1,N
1586423535.2,286046998.8,N
1586423555.1,286046999.0,N
1586423556.0,286046999.0,N
1586423575.8,286046998.1,N
1586423595.7,286047000.6,N
1586423615.5,286047000.6,N
1586423635.3,286046999.5,N
1586423655.2,286046999.8,N
1586423675.0,286047002.3,N
1586423675.9,286047002.3,N
1586423695.7,286047001.6,N
1586423715.6,286047002.6,N
1586423735.4,286047001.1,N
1586423755.3,286047000.5,N
1586423775.1,286047002.5,N
1586423795.8,286047002.6,N
1586423815.7,286047001.6,N
1586423835.5,286047002.0,N
1586423855.4,286047001.4,N
1586423875.2,286047002.4,N
1586423895.0,286047001.8,N
1586423895.9,286047001.8,N
1586423915.8,286047002.4,N
1586423935.6,286047000.9,N
1586423955.4,286047003.9,N
1586423975.3,286047005.8,Y
1586423995.1,286047004.0,P
1586424015.9,286047005.2,P
1586424035.7,286047003.4,N
1586424055.5,286047005.6,Y
1586424075.4,286046999.7,P
1586424095.2,286047001.8,N
1586424115.1,286047000.5,N
1586424116.0,286047000.5,N
1586424135.8,286046997.1,N
1586424155.6,286046997.0,N
1586424175.5,286046996.5,N
1586424195.3,286046999.0,N
1586424215.1,286046998.5,N
1586424235.9,286047000.5,N
1586424255.7,286047000.1,N
1586424275.6,286047000.0,N
1586424295.4,286046999.8,N
1586424315.2,286047001.4,N
1586424335.1,286047003.7,N
1586424336.0,286047003.7,N
1586424355.8,286047004.0,N
1586424375.7,286047003.7,N
1586424395.5,286047005.6,N
1586424415.3,286047005.2,N
1586424435.2,286047005.4,N
1586424455.0,286047007.2,N
1586424455.9,286047007.2,N
1586424475.7,286047004.7,N
1586424495.6,286047005.1,N
1586424515.4,286047005.0,N
1586424535.3,286047006.4,N
1586424555.1,286047008.6,N
1586424575.8,286047008.0,N
1586424595.7,286047006.8,N
1586424615.5,286047006.2,N
1586424635.4,286047006.4,N
1586424655.2,286047008.9,N
1586424675.0,286047007.6,N
1586424675.9,286047007.6,N
1586424695.8,286047007.5,N
1586424715.6,286047007.0,N
1586424735.4,286047006.9,N
1586424755.3,286047005.0,N
1586424775.1,286047005.1,N
1586424795.9,286047004.8,N
1586424815.7,286047004.6,N
1586424835.5,286047005.3,N
1586424855.4,286047005.1,Y
1586424875.2,286047000.0,P
1586424895.0,286046999.9,N
1586424895.9,286046999.9,N
1586424915.8,286046998.3,N
1586424935.6,286046998.7,N
1586424955.5,286046996.6,N
1586424975.3,286046996.6,N
1586424995.1,286046997.6,N
1586425015.9,286046997.8,N
1586425035.7,286046999.5,N
1586425055.5,286046999.6,N
1586425075.4,286046998.8,N
1586425095.2,286047001.0,N
1586425115.1,286046998.5,N
1586425116.0,286046998.5,N
1586425135.8,286046999.0,N
1586425155.6,286046992.1,Y
1586425175.5,286046997.5,P
1586425195.3,286046999.2,N
1586425215.2,286046999.0,N
1586425235.9,286046999.6,N
1586425255.7,286046996.5,Y
1586425275.6,286047001.2,P
1586425295.4,286047000.1,N
1586425315.3,286046998.1,N
1586425335.1,286047001.0,N
1586425336.0,286047001.0,N
1586425355.8,286046998.9,N
1586425375.7,286046999.2,N
1586425395.5,286046997.1,N
1586425415.3,286046997.4,N
1586425435.2,286046997.3,N
1586425455.0,286046994.9,Y
1586425455.9,286046994.9,P
1586425475.8,286046998.3,N
1586425495.6,286046998.2,N
1586425515.4,286047000.7,N
1586425535.3,286046999.9,N
1586425555.1,286046999.8,N
1586425575.9,286046999.8,N
1586425595.7,286047000.4,N
1586425615.5,286047001.1,N
1586425635.4,286047000.9,N
1586425655.2,286047000.9,N
1586425675.0,286047000.7,N
1586425675.9,286047000.7,N
1586425695.8,286046999.0,N
1586425715.6,286046999.2,N
1586425735.5,286046998.7,N
1586425755.3,286046999.2,N
1586425775.1,286046997.0,N
1586425795.9,286046997.1,N
1586425815.7,286046999.6,N
1586425835.6,286046999.2,N
1586425855.4,286046997.1,N
1586425875.2,286046998.8,N
1586425895.1,286046999.3,N
1586425896.0,286046999.3,N
1586425915.8,286047000.4,N
1586425935.7,286047000.0,N
1586425955.5,286047002.5,N
1586425975.3,286047002.8,N
1586425995.2,286047002.4,N
1586426015.0,286047000.3,N
1586426015.9,286047000.3,N
1586426035.7,286047000.6,N
1586426055.6,286047000.2,N
1586426075.4,286046998.2,N
1586426095.3,286046998.1,N
1586426115.1,286046999.5,N
1586426135.8,286046999.3,N
1586426155.7,286046999.6,N
1586426175.5,286046995.6,Y
1586426195.4,286046998.1,P
1586426215.2,286047001.1,N
1586426235.0,286047001.0,N
1586426235.9,286047001.0,N
1586426255.8,286046998.4,N
1586426275.6,286046998.6,N
1586426295.4,286047001.1,N
1586426315.3,286047000.9,N
1586426335.1,286047000.7,N
1586426355.9,286047000.2,N
1586426375.7,286047001.0,N
1586426395.5,286047001.1,N
